When you browse on this site, cookies collect data to enhance your experience and personalize the content and advertising you see.
Visit our Privacy Policy to learn more. By continuing to use the site, you agree to this use of cookies and data.
  • In Österreich
  • Länderverzeichnis
  • Für 7 Tage
  • Wassertemperatur
  • Satellitenkarten
  • Wetterkarte
  • News
  • Widgets
  • user-avatar
    Anmelden

    Stündliche Wetter Buda (Lenin)

    Heute, 24 Juli, Mittwoch

    Zeit Temperatur Niederschläge Wind Luftdruck Luftfeuchtigkeit
    00:00 +15°C° 0 mm 4 m/S 744 mmHg 95%
    01:00 +14°C° 0 mm 4 m/S 744 mmHg 96%
    02:00 +14°C° 0 mm 4 m/S 744 mmHg 96%
    03:00 +14°C° 0 mm 4 m/S 744 mmHg 96%
    04:00 +14°C° 0 mm 4 m/S 744 mmHg 97%
    05:00 +14°C° 0 mm 4 m/S 744 mmHg 97%
    06:00 +15°C° 0 mm 4 m/S 745 mmHg 94%
    07:00 +17°C° 0 mm 4 m/S 745 mmHg 92%
    08:00 +17°C° 0 mm 5 m/S 745 mmHg 89%
    09:00 +19°C° 0.1 mm 5 m/S 745 mmHg 86%
    10:00 +20°C° 0.1 mm 5 m/S 745 mmHg 83%
    11:00 +21°C° 0.1 mm 5 m/S 745 mmHg 79%
    12:00 +21°C° 0.2 mm 5 m/S 745 mmHg 74%
    13:00 +22°C° 0.2 mm 6 m/S 745 mmHg 69%
    14:00 +23°C° 0.2 mm 6 m/S 745 mmHg 64%
    15:00 +23°C° 0.1 mm 5 m/S 746 mmHg 66%
    16:00 +23°C° 0.1 mm 5 m/S 746 mmHg 68%
    17:00 +23°C° 0.1 mm 5 m/S 746 mmHg 69%
    18:00 +21°C° 0.1 mm 4 m/S 746 mmHg 74%
    19:00 +19°C° 0.1 mm 4 m/S 746 mmHg 79%
    20:00 +18°C° 0.1 mm 3 m/S 746 mmHg 84%
    21:00 +17°C° 0 mm 3 m/S 746 mmHg 86%
    22:00 +16°C° 0 mm 3 m/S 746 mmHg 89%
    23:00 +14°C° 0 mm 3 m/S 747 mmHg 91%

    Morgen, 25 Juli, Donnerstag

    Zeit Temperatur Niederschläge Wind Luftdruck Luftfeuchtigkeit
    00:00 +14°C° 0 mm 3 m/S 747 mmHg 92%
    01:00 +13°C° 0 mm 3 m/S 747 mmHg 93%
    02:00 +13°C° 0 mm 3 m/S 747 mmHg 94%
    03:00 +13°C° 0 mm 3 m/S 747 mmHg 93%
    04:00 +13°C° 0 mm 3 m/S 747 mmHg 93%
    05:00 +13°C° 0 mm 3 m/S 747 mmHg 92%
    06:00 +14°C° 0 mm 4 m/S 747 mmHg 87%
    07:00 +17°C° 0 mm 4 m/S 747 mmHg 82%
    08:00 +19°C° 0 mm 4 m/S 747 mmHg 76%
    09:00 +19°C° 0.1 mm 4 m/S 747 mmHg 77%
    10:00 +19°C° 0.1 mm 3 m/S 747 mmHg 78%
    11:00 +19°C° 0.1 mm 2 m/S 747 mmHg 79%
    12:00 +20°C° 0.6 mm 2 m/S 747 mmHg 76%
    13:00 +21°C° 0.6 mm 2 m/S 746 mmHg 74%
    14:00 +23°C° 0.6 mm 2 m/S 746 mmHg 72%
    15:00 +21°C° 1.1 mm 2 m/S 746 mmHg 74%
    16:00 +21°C° 1.1 mm 3 m/S 746 mmHg 76%
    17:00 +21°C° 1.1 mm 3 m/S 746 mmHg 78%
    18:00 +20°C° 0.1 mm 3 m/S 745 mmHg 82%
    19:00 +18°C° 0.1 mm 2 m/S 745 mmHg 86%
    20:00 +17°C° 0.1 mm 2 m/S 745 mmHg 90%
    21:00 +16°C° 0 mm 1 m/S 745 mmHg 91%
    22:00 +16°C° 0 mm 1 m/S 745 mmHg 91%
    23:00 +14°C° 0 mm 0 m/S 745 mmHg 92%

    übermorgen, 26 Juli, Freitag

    Zeit Temperatur Niederschläge Wind Luftdruck Luftfeuchtigkeit
    00:00 +14°C° 0 mm 0 m/S 745 mmHg 92%
    01:00 +13°C° 0 mm 0 m/S 745 mmHg 92%
    02:00 +13°C° 0 mm 0 m/S 745 mmHg 93%
    03:00 +14°C° 0 mm 1 m/S 745 mmHg 93%
    04:00 +14°C° 0 mm 1 m/S 745 mmHg 93%
    05:00 +14°C° 0 mm 2 m/S 745 mmHg 94%
    06:00 +16°C° 0 mm 2 m/S 745 mmHg 91%
    07:00 +17°C° 0 mm 2 m/S 745 mmHg 88%
    08:00 +19°C° 0 mm 2 m/S 745 mmHg 85%
    09:00 +20°C° 0.1 mm 3 m/S 745 mmHg 81%
    10:00 +21°C° 0.1 mm 3 m/S 745 mmHg 77%
    11:00 +22°C° 0.1 mm 4 m/S 746 mmHg 73%
    12:00 +22°C° 0.5 mm 4 m/S 745 mmHg 76%
    13:00 +22°C° 0.5 mm 4 m/S 745 mmHg 79%
    14:00 +21°C° 0.5 mm 5 m/S 745 mmHg 82%
    15:00 +21°C° 0.4 mm 5 m/S 745 mmHg 83%
    16:00 +21°C° 0.4 mm 5 m/S 745 mmHg 85%
    17:00 +21°C° 0.4 mm 4 m/S 745 mmHg 86%
    18:00 +20°C° 0.2 mm 4 m/S 745 mmHg 89%
    19:00 +19°C° 0.2 mm 4 m/S 745 mmHg 92%
    20:00 +18°C° 0.2 mm 4 m/S 745 mmHg 95%
    21:00 +18°C° 0 mm 3 m/S 745 mmHg 95%
    22:00 +18°C° 0 mm 3 m/S 745 mmHg 95%
    23:00 +17°C° 0 mm 2 m/S 745 mmHg 95%

    27 Juli, Samstag

    Zeit Temperatur Niederschläge Wind Luftdruck Luftfeuchtigkeit
    00:00 +17°C° 0.1 mm 2 m/S 745 mmHg 95%
    01:00 +18°C° 0.1 mm 1 m/S 744 mmHg 95%
    02:00 +18°C° 0.1 mm 1 m/S 744 mmHg 95%
    03:00 +17°C° 0.3 mm 2 m/S 744 mmHg 96%
    04:00 +17°C° 0.3 mm 2 m/S 744 mmHg 96%
    05:00 +17°C° 0.3 mm 2 m/S 744 mmHg 97%
    06:00 +18°C° 0.1 mm 3 m/S 744 mmHg 96%
    07:00 +18°C° 0.1 mm 4 m/S 744 mmHg 95%
    08:00 +19°C° 0.1 mm 5 m/S 743 mmHg 94%
    09:00 +19°C° 0.1 mm 5 m/S 743 mmHg 91%
    10:00 +20°C° 0.1 mm 6 m/S 744 mmHg 88%
    11:00 +21°C° 0.1 mm 6 m/S 744 mmHg 85%
    12:00 +21°C° 0.4 mm 6 m/S 743 mmHg 84%
    13:00 +21°C° 0.4 mm 5 m/S 743 mmHg 84%
    14:00 +22°C° 0.4 mm 5 m/S 743 mmHg 83%
    15:00 +22°C° 0.6 mm 5 m/S 743 mmHg 82%
    16:00 +22°C° 0.6 mm 5 m/S 743 mmHg 81%
    17:00 +23°C° 0.6 mm 4 m/S 743 mmHg 80%
    18:00 +22°C° 0.2 mm 4 m/S 743 mmHg 84%
    19:00 +21°C° 0.2 mm 3 m/S 743 mmHg 88%
    20:00 +20°C° 0.2 mm 3 m/S 743 mmHg 91%
    21:00 +19°C° 0 mm 3 m/S 743 mmHg 92%
    22:00 +19°C° 0 mm 3 m/S 743 mmHg 93%
    23:00 +18°C° 0 mm 3 m/S 743 mmHg 93%

    28 Juli, Sonntag

    Zeit Temperatur Niederschläge Wind Luftdruck Luftfeuchtigkeit
    00:00 +18°C° 0 mm 3 m/S 743 mmHg 94%
    01:00 +17°C° 0 mm 3 m/S 743 mmHg 94%
    02:00 +17°C° 0 mm 2 m/S 743 mmHg 94%
    03:00 +17°C° 0 mm 2 m/S 743 mmHg 95%
    04:00 +17°C° 0 mm 3 m/S 743 mmHg 95%
    05:00 +17°C° 0 mm 3 m/S 743 mmHg 96%
    06:00 +18°C° 0 mm 3 m/S 743 mmHg 92%
    07:00 +20°C° 0 mm 4 m/S 743 mmHg 88%
    08:00 +21°C° 0 mm 4 m/S 743 mmHg 84%
    09:00 +23°C° 0.1 mm 4 m/S 743 mmHg 78%
    10:00 +25°C° 0.1 mm 4 m/S 743 mmHg 72%
    11:00 +27°C° 0.1 mm 4 m/S 743 mmHg 66%
    12:00 +26°C° 0.5 mm 4 m/S 742 mmHg 67%
    13:00 +26°C° 0.5 mm 5 m/S 742 mmHg 69%
    14:00 +26°C° 0.5 mm 6 m/S 742 mmHg 71%
    15:00 +24°C° 0 mm 6 m/S 742 mmHg 71%
    16:00 +24°C° 0 mm 6 m/S 742 mmHg 72%
    17:00 +23°C° 0 mm 5 m/S 742 mmHg 72%
    18:00 +21°C° 0 mm 5 m/S 742 mmHg 75%
    19:00 +20°C° 0 mm 5 m/S 743 mmHg 78%
    20:00 +18°C° 0 mm 4 m/S 743 mmHg 82%
    21:00 +17°C° 0 mm 4 m/S 743 mmHg 83%
    22:00 +14°C° 0 mm 4 m/S 744 mmHg 84%
    23:00 +13°C° 0 mm 4 m/S 744 mmHg 85%

    29 Juli, Montag

    Zeit Temperatur Niederschläge Wind Luftdruck Luftfeuchtigkeit
    00:00 +12°C° 0 mm 4 m/S 744 mmHg 85%
    01:00 +11°C° 0 mm 3 m/S 744 mmHg 84%
    02:00 +10°C° 0 mm 3 m/S 745 mmHg 83%
    03:00 +10°C° 0 mm 3 m/S 745 mmHg 85%
    04:00 +9°C° 0 mm 3 m/S 745 mmHg 87%
    05:00 +9°C° 0 mm 3 m/S 745 mmHg 89%
    06:00 +10°C° 0 mm 3 m/S 745 mmHg 83%
    07:00 +11°C° 0 mm 3 m/S 746 mmHg 78%
    08:00 +13°C° 0 mm 4 m/S 746 mmHg 72%
    09:00 +14°C° 0 mm 4 m/S 746 mmHg 68%
    10:00 +15°C° 0 mm 4 m/S 746 mmHg 63%
    11:00 +17°C° 0 mm 4 m/S 746 mmHg 59%
    12:00 +17°C° 0 mm 4 m/S 746 mmHg 60%
    13:00 +16°C° 0 mm 5 m/S 746 mmHg 60%
    14:00 +16°C° 0 mm 5 m/S 746 mmHg 60%
    15:00 +17°C° 0 mm 4 m/S 746 mmHg 62%
    16:00 +15°C° 0 mm 4 m/S 746 mmHg 65%
    17:00 +16°C° 0 mm 3 m/S 746 mmHg 67%
    18:00 +14°C° 0 mm 3 m/S 746 mmHg 72%
    19:00 +14°C° 0 mm 2 m/S 746 mmHg 76%
    20:00 +13°C° 0 mm 2 m/S 746 mmHg 81%
    21:00 +12°C° 0 mm 2 m/S 746 mmHg 84%
    22:00 +10°C° 0 mm 2 m/S 746 mmHg 86%
    23:00 +9°C° 0 mm 2 m/S 746 mmHg 88%
    Mehr zeigen